Location: Newark
(22.3060°N, 114.2134°E)
Time: 07:48:05
(UTC+00:00)

Vanguard 2 - Pass Details

Date: 08 August 2021
Orbit: 553 x 2937 km, 32.9° (Epoch: 24 September)

Event Time Altitude Azimuth Distance (km) Brightness Sun altitude
Rises 20:22:40 0° 295° (WNW) 2,849 - -21.2°
Reaches altitude 10° 20:25:34 10° 314° (NW) 1,841 - -20.6°
Exits shadow 20:26:01 12° 319° (NW) 1,714 9.2 -20.5°
Maximum altitude 20:28:27 19° 1° (N) 1,353 9.1 -20.0°
Drops below altitude 10° 20:31:24 10° 48° (NE) 1,886 10.7 -19.4°
Sets 20:34:25 0° 67° (ENE) 2,947 12.2 -18.8°
